Retour au catalogue

COSMOS 494

ActifMilitaireLEO
NORAD 6059·PAYLOAD·🇷🇺 Russia

Lancé Jun 23, 1972 depuis Plesetsk Cosmodrome

Loading…

Prochains Passages (prochaines 24 heures)

TLE

FraisSource: Space-Track

Époque: Sep 14, 2026, 11:39 UTC

1 06059U 72043A   26257.48606383  .00000057  00000-0  28269-4 0  9999
2 06059  74.0530 277.9691 0009750  26.4828 333.6821 14.36552551836968

Suivez COSMOS 494 en temps réel avec AllMySat

Download on the App Store